When you browse on this site, cookies collect data to enhance your experience and personalize the content and advertising you see.
Visit our Privacy Policy to learn more. By continuing to use the site, you agree to this use of cookies and data.
EN

Hourly Weather Viline

Today, 12 August, Wednesday

Time Temperature Precipitation Wind Pressure Humidity
00:00 +23°C° 0 mm 2 mps 754 mmHg 66%
01:00 +22°C° 0 mm 1 mps 754 mmHg 66%
02:00 +22°C° 0 mm 1 mps 754 mmHg 65%
03:00 +22°C° 0 mm 1 mps 754 mmHg 66%
04:00 +22°C° 0 mm 1 mps 754 mmHg 67%
05:00 +22°C° 0 mm 1 mps 754 mmHg 67%
06:00 +24°C° 0 mm 1 mps 754 mmHg 61%
07:00 +26°C° 0 mm 1 mps 754 mmHg 54%
08:00 +29°C° 0 mm 1 mps 754 mmHg 48%
09:00 +30°C° 0 mm 2 mps 755 mmHg 44%
10:00 +31°C° 0 mm 3 mps 755 mmHg 40%
11:00 +33°C° 0 mm 3 mps 755 mmHg 37%
12:00 +33°C° 0 mm 4 mps 755 mmHg 37%
13:00 +33°C° 0 mm 4 mps 754 mmHg 38%
14:00 +33°C° 0 mm 5 mps 754 mmHg 38%
15:00 +32°C° 0 mm 5 mps 754 mmHg 39%
16:00 +32°C° 0 mm 5 mps 754 mmHg 40%
17:00 +30°C° 0 mm 5 mps 754 mmHg 41%
18:00 +28°C° 0 mm 4 mps 754 mmHg 49%
19:00 +26°C° 0 mm 4 mps 754 mmHg 57%
20:00 +24°C° 0 mm 3 mps 754 mmHg 65%
21:00 +24°C° 0.1 mm 3 mps 755 mmHg 68%
22:00 +23°C° 0.1 mm 2 mps 755 mmHg 70%
23:00 +21°C° 0.1 mm 2 mps 755 mmHg 72%

Tomorrow, 13 August, Thursday

Time Temperature Precipitation Wind Pressure Humidity
00:00 +21°C° 0.1 mm 2 mps 755 mmHg 74%
01:00 +20°C° 0.1 mm 3 mps 755 mmHg 76%
02:00 +20°C° 0.1 mm 3 mps 755 mmHg 79%
03:00 +20°C° 0 mm 3 mps 755 mmHg 80%
04:00 +19°C° 0 mm 4 mps 755 mmHg 82%
05:00 +19°C° 0 mm 4 mps 755 mmHg 84%
06:00 +20°C° 0 mm 4 mps 755 mmHg 74%
07:00 +22°C° 0 mm 5 mps 755 mmHg 65%
08:00 +25°C° 0 mm 5 mps 756 mmHg 56%
09:00 +26°C° 0 mm 5 mps 756 mmHg 49%
10:00 +27°C° 0 mm 5 mps 756 mmHg 42%
11:00 +28°C° 0 mm 5 mps 756 mmHg 35%
12:00 +29°C° 0 mm 5 mps 756 mmHg 32%
13:00 +29°C° 0 mm 6 mps 756 mmHg 30%
14:00 +30°C° 0 mm 6 mps 756 mmHg 28%
15:00 +29°C° 0 mm 6 mps 756 mmHg 29%
16:00 +28°C° 0 mm 6 mps 756 mmHg 31%
17:00 +28°C° 0 mm 6 mps 756 mmHg 32%
18:00 +26°C° 0 mm 5 mps 756 mmHg 38%
19:00 +22°C° 0 mm 5 mps 756 mmHg 45%
20:00 +20°C° 0 mm 4 mps 756 mmHg 51%
21:00 +19°C° 0 mm 3 mps 756 mmHg 52%
22:00 +19°C° 0 mm 2 mps 756 mmHg 54%
23:00 +19°C° 0 mm 1 mps 756 mmHg 55%

Day after tomorrow, 14 August, Friday

Time Temperature Precipitation Wind Pressure Humidity
00:00 +19°C° 0 mm 1 mps 756 mmHg 55%
01:00 +17°C° 0 mm 2 mps 756 mmHg 55%
02:00 +17°C° 0 mm 2 mps 756 mmHg 54%
03:00 +17°C° 0 mm 2 mps 756 mmHg 55%
04:00 +17°C° 0 mm 2 mps 756 mmHg 56%
05:00 +18°C° 0 mm 1 mps 756 mmHg 57%
06:00 +20°C° 0 mm 1 mps 756 mmHg 51%
07:00 +23°C° 0 mm 1 mps 756 mmHg 45%
08:00 +25°C° 0 mm 1 mps 756 mmHg 40%
09:00 +26°C° 0 mm 2 mps 756 mmHg 37%
10:00 +27°C° 0 mm 3 mps 756 mmHg 34%
11:00 +28°C° 0 mm 4 mps 757 mmHg 32%
12:00 +28°C° 0 mm 5 mps 756 mmHg 32%
13:00 +28°C° 0 mm 6 mps 756 mmHg 33%
14:00 +28°C° 0 mm 6 mps 756 mmHg 33%
15:00 +28°C° 0 mm 6 mps 756 mmHg 34%
16:00 +28°C° 0 mm 6 mps 756 mmHg 34%
17:00 +27°C° 0 mm 6 mps 756 mmHg 35%
18:00 +24°C° 0 mm 6 mps 756 mmHg 41%
19:00 +22°C° 0 mm 5 mps 756 mmHg 48%
20:00 +20°C° 0 mm 4 mps 756 mmHg 55%
21:00 +19°C° 0 mm 4 mps 756 mmHg 59%
22:00 +19°C° 0 mm 3 mps 756 mmHg 63%
23:00 +18°C° 0 mm 2 mps 756 mmHg 67%

15 August, Saturday

Time Temperature Precipitation Wind Pressure Humidity
00:00 +18°C° 0 mm 2 mps 756 mmHg 67%
01:00 +17°C° 0 mm 2 mps 756 mmHg 66%
02:00 +17°C° 0 mm 2 mps 756 mmHg 66%
03:00 +17°C° 0 mm 2 mps 756 mmHg 66%
04:00 +17°C° 0 mm 2 mps 756 mmHg 67%
05:00 +16°C° 0 mm 2 mps 756 mmHg 67%
06:00 +19°C° 0 mm 3 mps 756 mmHg 60%
07:00 +21°C° 0 mm 3 mps 757 mmHg 52%
08:00 +24°C° 0 mm 3 mps 757 mmHg 44%
09:00 +25°C° 0 mm 3 mps 757 mmHg 40%
10:00 +26°C° 0 mm 3 mps 757 mmHg 37%
11:00 +28°C° 0 mm 3 mps 757 mmHg 33%
12:00 +28°C° 0 mm 4 mps 757 mmHg 31%
13:00 +29°C° 0 mm 4 mps 757 mmHg 30%
14:00 +29°C° 0 mm 5 mps 757 mmHg 28%
15:00 +29°C° 0 mm 5 mps 757 mmHg 30%
16:00 +28°C° 0 mm 5 mps 757 mmHg 32%
17:00 +27°C° 0 mm 5 mps 757 mmHg 33%
18:00 +25°C° 0 mm 5 mps 757 mmHg 41%
19:00 +21°C° 0 mm 5 mps 757 mmHg 48%
20:00 +19°C° 0 mm 5 mps 757 mmHg 56%
21:00 +18°C° 0 mm 4 mps 757 mmHg 57%
22:00 +18°C° 0 mm 4 mps 757 mmHg 58%
23:00 +17°C° 0 mm 3 mps 757 mmHg 58%

16 August, Sunday

Time Temperature Precipitation Wind Pressure Humidity
00:00 +17°C° 0 mm 3 mps 757 mmHg 58%
01:00 +17°C° 0 mm 3 mps 757 mmHg 57%
02:00 +16°C° 0 mm 3 mps 757 mmHg 56%
03:00 +16°C° 0 mm 3 mps 757 mmHg 58%
04:00 +16°C° 0 mm 3 mps 757 mmHg 59%
05:00 +16°C° 0 mm 3 mps 757 mmHg 61%
06:00 +18°C° 0 mm 3 mps 757 mmHg 55%
07:00 +20°C° 0 mm 4 mps 757 mmHg 49%
08:00 +23°C° 0 mm 4 mps 757 mmHg 43%
09:00 +25°C° 0 mm 4 mps 758 mmHg 38%
10:00 +26°C° 0 mm 4 mps 758 mmHg 34%
11:00 +28°C° 0 mm 4 mps 758 mmHg 30%
12:00 +28°C° 0 mm 5 mps 758 mmHg 32%
13:00 +28°C° 0 mm 5 mps 758 mmHg 35%
14:00 +28°C° 0 mm 6 mps 758 mmHg 37%
15:00 +27°C° 0 mm 6 mps 758 mmHg 36%
16:00 +26°C° 0 mm 5 mps 757 mmHg 35%
17:00 +26°C° 0 mm 5 mps 757 mmHg 34%
18:00 +23°C° 0 mm 4 mps 757 mmHg 40%
19:00 +20°C° 0 mm 4 mps 758 mmHg 45%
20:00 +18°C° 0 mm 3 mps 758 mmHg 51%
21:00 +18°C° 0 mm 3 mps 758 mmHg 52%
22:00 +18°C° 0 mm 3 mps 758 mmHg 53%
23:00 +17°C° 0 mm 3 mps 758 mmHg 54%

17 August, Monday

Time Temperature Precipitation Wind Pressure Humidity
00:00 +17°C° 0 mm 3 mps 758 mmHg 56%
01:00 +17°C° 0 mm 2 mps 757 mmHg 58%
02:00 +17°C° 0 mm 2 mps 757 mmHg 59%
03:00 +16°C° 0 mm 2 mps 757 mmHg 61%
04:00 +16°C° 0 mm 3 mps 757 mmHg 62%
05:00 +16°C° 0 mm 3 mps 757 mmHg 63%
06:00 +19°C° 0 mm 3 mps 758 mmHg 56%
07:00 +21°C° 0 mm 3 mps 758 mmHg 50%
08:00 +25°C° 0 mm 3 mps 758 mmHg 43%
09:00 +26°C° 0 mm 3 mps 758 mmHg 40%
10:00 +28°C° 0 mm 4 mps 758 mmHg 37%
11:00 +29°C° 0 mm 4 mps 758 mmHg 33%
12:00 +29°C° 0 mm 4 mps 758 mmHg 34%
13:00 +29°C° 0 mm 5 mps 758 mmHg 34%
14:00 +30°C° 0 mm 5 mps 757 mmHg 34%
15:00 +29°C° 0 mm 4 mps 757 mmHg 34%
16:00 +29°C° 0 mm 4 mps 757 mmHg 35%
17:00 +29°C° 0 mm 3 mps 757 mmHg 35%
18:00 +26°C° 0 mm 3 mps 757 mmHg 42%
19:00 +23°C° 0 mm 4 mps 757 mmHg 48%
20:00 +21°C° 0 mm 4 mps 757 mmHg 55%
21:00 +20°C° 0 mm 3 mps 757 mmHg 56%
22:00 +20°C° 0 mm 2 mps 757 mmHg 57%
23:00 +19°C° 0 mm 2 mps 757 mmHg 58%
Show more